THOR ABLESTAR DEB, 210

Orbit data source: Space-Track

THOR ABLESTAR DEB, 210 is space debris in LEO originally from a launch on Thu, 29 Jun 1961 UTC launched from the Air Force Eastern Test Range (AFETR). Debris objects in space refer to the collection of defunct objects orbiting the Earth. Examples of debris include non-operational satellites, rocket bodies, and fragments generated from explosions, collisions, or faulty payload assembly.

Loading next visibility...
Identifier
210, 1961-015BE
Orbit
LEO
Country
Flag of USUS
Related business
Manufacturer
Unknown
Mission
Spacecraft
Bus & Motor
Unknown
Mass
Unknown
Launch date (UTC)
1961-06-29 (65 years ago)
Launch vehicle
Unknown
Launch site
Air Force Eastern Test Range (AFETR)
Object type
Payload
Rocket body
Debris
Shape & HBR
Unknown shape, 0.2 m
Radar Cross Section
Medium (>0.1 m² and <1 m²)

Expand to show TLE details & history
Last TLE update: 8 hours ago

TLE from 8 hours ago
0 THOR ABLESTAR DEB
1   210U 61015BE  26118.74168167  .00000619  00000-0  56921-3 0  9996
2   210  66.4548 127.5945 0049996 336.2253  23.6512 13.89029972258534
Epoch: 2026-04-28T17:48Z
TLE epoch observation values (Epoch: 2026-04-28T17:48:01.296Z)
Latitude
-0.00003°
Longitude
3.87645°
Altitude
900.628 km
Speed
7.419 km/s
True Right ascension
08h 30m 22s
True Declination
0° 00' 00"
Sunlit
Object was in daylight at epoch
Visualization orbit readout
Latitude
Unknown
Longitude
Unknown
Altitude
Unknown
Speed
Unknown
Apparent Right ascension
Unknown
Apparent Declination
Unknown
Sunlit
N/A
Visualization observer readout
Local Sidereal Time
09:36:39
Azimuth
Unknown
Elevation
Unknown
Doppler factor
Unknown
Orbital elements
Apogee altitude
967.007 km
Perigee altitude
893.927 km
Semi-major axis
7,308.604 km
Eccentricity
0.005
Inclination
66.4548°
RAAN
127.5945°
Arg. of periapsis
336.2253°
True anomaly
23.88236°
Mean anomaly
23.6512°
Eccentric anomaly
23.76665°
Mean motion
3.47369 °/min
Orbital period
103.64 mins
BSTAR
0.00056921
Loading maneuver chart data...
Computing Atmospheric mass density...
Loading historical data...
Loading historical data...
Loading historical data...
Loading historical data...
Loading historical data...
Loading historical data...
Loading historical data...

Documentation

Showing up to 5 results
|